Regional Weather Roundup
Issued by NWS

Home | Current Version | Previous Version | Graphics & Text | Print | Product List | Glossary On
Versions: 1 2 3 4 5 6 7 8 9 10 11 12 13 14 15 16 17 18 19 20 21 22 23 24 25 26 27 28 29 30 31 32 33 34 35 36 37 38 39 40 41 42 43 44 45 46 47 48 49 50
000
ASUS43 KMPX 262301
RWRMN
WEATHER ROUNDUP FOR MINNESOTA
NATIONAL WEATHER SERVICE TWIN CITIES/CHANHASSEN MN
500 PM CST WED NOV 26 2014


NOTE: "FAIR" INDICATES FEW OR NO CLOUDS BELOW 12,000 FEET WITH NO
SIGNIFICANT WEATHER AND/OR OBSTRUCTIONS TO VISIBILITY. N/A MEANS
CURRENT SKY AND/OR WEATHER CONDITIONS ARE NOT AVAILABLE.

MNZ060>063-068>070-270000-
   Twin Cities Metro

CITY           SKY/WX    TMP DP  RH WIND       PRES   REMARKS
TWIN CITIES    MOCLDY    22  15  75 NW6       30.26R WCI  14
ST PAUL        MOCLDY    22  16  78 NW7       30.28R WCI  13
CRYSTAL        MOCLDY    25  16  68 NW10      30.26R WCI  15
LAKEVILLE      CLOUDY    23  18  80 NW9       30.25R WCI  13
EDEN PRAIRIE   PTCLDY    23  16  74 NW3       30.25R
SOUTH ST PAUL  MOCLDY    24  17  72 N3        30.26R
LAKE ELMO      FAIR      23  18  80 NW3       30.26R
$$
MNZ001>005-007-008-013>017-022>024-027-028-270000-
   Northwest Minnesota

CITY           SKY/WX    TMP DP  RH WIND       PRES   REMARKS
BEMIDJI        CLEAR      0  -8  69 W9        30.37R WCI -15
HALLOCK        CLEAR     -4 -11  71 N6        30.51R WCI -16
ROSEAU         CLEAR     -2  -9  71 NW9       30.45R WCI -18
WARROAD        CLEAR     -2  -9  71 NW7       30.44R WCI -16
THIEF RVR FALL CLEAR      0  -8  71 NW9       30.44R WCI -16
CROOKSTON      CLEAR      0  -8  71 N12       30.50R WCI -18
FOSSTON        CLEAR     -6 -11  77 N6        30.42R WCI -18
DETROIT LAKES  CLEAR      3  -4  72 N12G18    30.40R WCI -13
MOORHEAD       CLEAR      1  -2  85 N12       30.48R WCI -15
PARK RAPIDS    CLEAR      4  -9  55 NW9       30.33R WCI -10
MAHNOMEN       FAIR       0  -8  69 N10       30.41R WCI -16
$$
MNZ006-009>011-018-025>026-270000-
   North Central Minnesota

CITY           SKY/WX    TMP DP  RH WIND       PRES   REMARKS
BAUDETTE       CLEAR     -3 -10  72 N6        30.40R WCI -15
FLAG ISLAND    CLEAR     -2  -9  71 NW9       30.43R WCI -18
INTL FALLS     CLEAR     -1  -8  72 NW6       30.37R WCI -13
WASKISH        CLEAR      0  -8  71 CALM      30.40R
BIG FORK       CLEAR      5  -6  61 NW5       30.34R WCI  -4
LONGVILLE      FAIR       7  -8  51 NW7       30.33R WCI  -5
GRAND RAPIDS   CLEAR      9  -8  47 NW13      30.29R WCI  -7
CRANE LAKE     CLEAR      3  -4  72 NW5       30.36R WCI  -6
ORR            CLEAR      1  -8  66 NW6       30.29S WCI -10
COOK           CLEAR      3  -6  66 NW5       30.31R WCI  -6
WALKER         FAIR       6  -8  53 NW6       30.34R WCI  -5
$$
MNZ012-019>021-037-270000-
   Northeast Minnesota

CITY           SKY/WX    TMP DP  RH WIND       PRES   REMARKS
DULUTH         PTCLDY    14   4  64 NW12      30.24R WCI   0
ELY            CLEAR      7  -2  66 NW5       30.27R WCI  -2
HIBBING        CLEAR      9  -5  53 N9        30.28R WCI  -4
EVELETH        CLEAR     10  -4  52 N7        30.28R WCI   0
DULUTH HARBOR  PTCLDY    19   9  63 NW12      30.31R WCI   7
TWO HARBORS    MOCLDY    18   9  68 CALM      30.24R
SILVER BAY     PTCLDY    16   7  67 NW6       30.24R WCI   7
GRAND MARAIS     N/A     14   4  64 N9G28     30.27R WCI   2
G MARAIS ARPRT PTCLDY     5   0  78 NW7       30.19R WCI  -7
$$
MNZ029>031-032-039>041-046>048-054>057-064-270000-
   West Central Minnesota

CITY           SKY/WX    TMP DP  RH WIND       PRES   REMARKS
FERGUS FALLS   PTCLDY     1  -6  71 N14       30.45R WCI -17
WHEATON        CLOUDY     3  -2  78 NW12      30.46R WCI -13
MORRIS         CLOUDY     7   1  78 NW21G26   30.37R WCI -13
ALEXANDRIA     CLOUDY    11   1  64 NW12      30.33R WCI  -3
ELBOW LAKE     CLOUDY     6   0  78 NW14G21   30.38R WCI -11
WADENA         CLEAR      9  -2  61 NW14      30.33R WCI  -8
GLENWOOD       CLOUDY    12   7  79 NW13G21   30.32R WCI  -3
APPLETON       CLOUDY     9   1  72 NW18G26   30.40R WCI -10
BENSON         FLURRIES  10   5  79 N16G22    30.36R WCI  -7
ORTONVILLE     CLOUDY     7   0  72 NW15      30.41R WCI -11
MADISON        MOCLDY    12   7  79 NW23      30.41R WCI  -7
WILLMAR        CLOUDY    16   9  73 NW17      30.34R WCI   0
$$
MNZ033>034-036-042>043-049>051-058-059-270000-
   Central Minnesota

CITY           SKY/WX    TMP DP  RH WIND       PRES   REMARKS
ST CLOUD       CLOUDY    21   9  59 N9        30.28R WCI  11
SAUK CENTRE    CLOUDY    17   7  64 NW12      30.31R WCI   4
PAYNESVILLE    CLOUDY    17   8  69 W8        30.31R WCI   6
AITKIN         PTCLDY    16   0  48 NW9       30.29R WCI   4
PINE RIVER     CLEAR      9  -4  56 NW7       30.35R WCI  -3
BRAINERD       MOCLDY    11  -3  53 N13       30.31R WCI  -4
STAPLES        MOCLDY    10  -2  56 N10       30.32R WCI  -3
LONG PRAIRIE   CLOUDY    16   5  62 NW10      30.31R WCI   3
LITTLE FALLS   PTCLDY    18   3  53 N6        30.31R WCI   9
LITCHFIELD     CLOUDY    21  16  79 NW8       30.30R WCI  12
BUFFALO        CLOUDY    22  14  71 NW9       30.29R WCI  12
MAPLE LAKE     CLOUDY    22  15  74 NW9       30.30R WCI  12
$$
MNZ037-044-045-052-053-270000-
   East Central Minnesota

CITY           SKY/WX    TMP DP  RH WIND       PRES   REMARKS
PRINCETON      CLOUDY    21  12  68 N8        30.28R WCI  12
MORA           PTCLDY    19  10  68 NW8       30.29R WCI   9
CAMBRIDGE      CLOUDY    23  12  63 NW10      30.26R WCI  12
RUSH CITY      CLOUDY    22  13  68 N8        30.27R WCI  13
MOOSE LAKE     CLOUDY    19   7  58 N7        30.26R WCI  10
HINCKLEY       CLOUDY    21  12  68 N7        30.27R WCI  13
CLOQUET        MOCLDY    14   3  62 NW8       30.26R WCI   3
MCGREGOR       PTCLDY    14   3  62 NW9       30.29R WCI   2
$$
MNZ071>073-080-081-089-090-097-098-270000-
   Southwest Minnesota

CITY           SKY/WX    TMP DP  RH WIND       PRES   REMARKS
MONTEVIDEO     CLOUDY     9   5  85 N15G22    30.38R WCI  -8
GRANITE FALLS  CLOUDY    11   6  81 NW16      30.38R WCI  -6
CANBY          CLOUDY    10   3  75 NW15G21   30.40R WCI  -7
MARSHALL       CLOUDY    10   1  67 N20       30.35S WCI  -8
REDWOOD FALLS  CLOUDY    13   7  77 NW14      30.34R WCI  -2
OLIVIA         PTCLDY    16  10  79 NW14      30.33R WCI   1
PIPESTONE      CLEAR     12   7  79 N7        30.31R WCI   2
WINDOM         LGT SNOW  12  10  92 NW21      30.30R WCI  -6
WORTHINGTON    CLOUDY    14  10  85 NW21      30.30R WCI  -4
JACKSON        CLOUDY    18  14  86 NW24G30   30.27R WCI   0
TRACY          FLURRIES  11   8  85 NW16G23   30.34R WCI  -5
SLAYTON        MOCLDY    10   6  87 NW13      30.32R WCI  -6
$$
MNZ065>067-074>077-082>085-091>093-270000-
   South Central Minnesota

CITY           SKY/WX    TMP DP  RH WIND       PRES   REMARKS
MANKATO        CLOUDY    25  16  68 N9        30.26R WCI  15
NEW ULM        CLOUDY    16  14  93 NW16      30.30R WCI   0
ST JAMES       CLOUDY    19  16  86 NW18G24   30.30R WCI   4
FAIRMONT       CLOUDY    19  14  79 NW15G23   30.25R WCI   5
GLENCOE        MOCLDY    22  18  83 NW7       30.28R WCI  14
FARIBAULT      CLOUDY    25  19  80 NW6       30.25R WCI  18
OWATONNA       MOCLDY    25  21  86 N8        30.23R WCI  16
WASECA         CLOUDY    23  18  80 NW16      30.25R WCI  10
ALBERT LEA     CLOUDY    25  23  93 N7        30.22R FOG     WCI  17
$$
MNZ078>079-086>088-094>096-270000-
   Southeast Minnesota

CITY           SKY/WX    TMP DP  RH WIND       PRES   REMARKS
ROCHESTER      CLOUDY    22  20  92 N6        30.20R FOG     WCI  14
RED WING         N/A     27  19  74 N6        30.24R WCI  20
STANTON        CLOUDY    26  20  77 N7        30.24R WCI  19
DODGE CENTER   LGT SNOW  25  23  93 N8        30.20R WCI  16
WINONA         LGT SNOW  28  25  86 N5        30.23R WCI  23
AUSTIN         LGT SNOW  25  21  86 N5        30.20R WCI  19
PRESTON        LGT SNOW  22  21  93 N5        30.19R WCI  16
$$
ABBREVIATIONS USED IN REMARKS
   TC - TEMPERATURES IN CELSIUS
  WCI - WIND CHILL INDEX
   HX - HEAT INDEX
  VSB - VISIBILITY
$$


USA.gov is the U.S. government's official web portal to all federal, state and local government web resources and services.